When you browse on this site, cookies collect data to enhance your experience and personalize the content and advertising you see.
Visit our Privacy Policy to learn more. By continuing to use the site, you agree to this use of cookies and data.
  • In Hungary
  • List of Countries
  • For 7 days
  • Water Temperature
  • Satellite Maps
  • Weather Map
  • News
  • Weather Widgets
  • user-avatar
    Login

    Hourly Weather Debrecen

    Today, 12 December, Wednesday

    Time Temperature Precipitation Wind Pressure Humidity
    00:00 0°C° 0.2 mm 3 mps 750 mmHg 90%
    01:00 0°C° 0.2 mm 3 mps 750 mmHg 91%
    02:00 +1°C° 0.1 mm 2 mps 750 mmHg 91%
    03:00 +1°C° 0.1 mm 2 mps 750 mmHg 92%
    04:00 +1°C° 0.1 mm 2 mps 750 mmHg 93%
    05:00 +1°C° 0.1 mm 2 mps 750 mmHg 94%
    06:00 -1°C° 0.1 mm 2 mps 750 mmHg 94%
    07:00 +1°C° 0.1 mm 1 mps 751 mmHg 94%
    08:00 +2°C° 0 mm 1 mps 751 mmHg 93%
    09:00 +2°C° 0 mm 1 mps 751 mmHg 91%
    10:00 +3°C° 0 mm 1 mps 752 mmHg 89%
    11:00 +3°C° 0 mm 1 mps 752 mmHg 88%
    12:00 +3°C° 0 mm 1 mps 752 mmHg 86%
    13:00 +3°C° 0 mm 1 mps 752 mmHg 85%
    14:00 +3°C° 0.1 mm 1 mps 752 mmHg 87%
    15:00 +3°C° 0.1 mm 1 mps 752 mmHg 89%
    16:00 +2°C° 0.1 mm 1 mps 753 mmHg 90%
    17:00 +2°C° 0 mm 1 mps 753 mmHg 91%
    18:00 -1°C° 0 mm 2 mps 753 mmHg 91%
    19:00 -1°C° 0 mm 2 mps 753 mmHg 91%
    20:00 -1°C° 0 mm 2 mps 754 mmHg 91%
    21:00 0°C° 0 mm 1 mps 754 mmHg 91%
    22:00 0°C° 0 mm 1 mps 754 mmHg 90%
    23:00 0°C° 0 mm 1 mps 754 mmHg 90%

    Tomorrow, 13 December, Thursday

    Time Temperature Precipitation Wind Pressure Humidity
    00:00 -2°C° 0 mm 2 mps 754 mmHg 90%
    01:00 -2°C° 0 mm 2 mps 755 mmHg 90%
    02:00 -2°C° 0 mm 2 mps 755 mmHg 89%
    03:00 -2°C° 0 mm 2 mps 755 mmHg 89%
    04:00 -2°C° 0 mm 2 mps 755 mmHg 89%
    05:00 0°C° 0 mm 1 mps 755 mmHg 88%
    06:00 0°C° 0 mm 1 mps 755 mmHg 87%
    07:00 0°C° 0 mm 1 mps 755 mmHg 87%
    08:00 0°C° 0 mm 1 mps 755 mmHg 83%
    09:00 +1°C° 0 mm 1 mps 755 mmHg 78%
    10:00 +2°C° 0 mm 1 mps 755 mmHg 74%
    11:00 +2°C° 0 mm 1 mps 755 mmHg 71%
    12:00 +2°C° 0 mm 2 mps 755 mmHg 69%
    13:00 +2°C° 0 mm 2 mps 754 mmHg 66%
    14:00 +3°C° 0 mm 1 mps 754 mmHg 70%
    15:00 +2°C° 0 mm 1 mps 755 mmHg 74%
    16:00 +1°C° 0 mm 1 mps 755 mmHg 78%
    17:00 +1°C° 0 mm 1 mps 755 mmHg 78%
    18:00 +1°C° 0 mm 1 mps 755 mmHg 79%
    19:00 0°C° 0 mm 1 mps 755 mmHg 80%
    20:00 0°C° 0 mm 1 mps 755 mmHg 80%
    21:00 0°C° 0 mm 1 mps 755 mmHg 81%
    22:00 0°C° 0 mm 1 mps 755 mmHg 81%
    23:00 0°C° 0 mm 1 mps 755 mmHg 81%

    Day after tomorrow, 14 December, Friday

    Time Temperature Precipitation Wind Pressure Humidity
    00:00 0°C° 0 mm 1 mps 755 mmHg 82%
    01:00 0°C° 0 mm 1 mps 755 mmHg 82%
    02:00 0°C° 0 mm 1 mps 755 mmHg 83%
    03:00 -1°C° 0 mm 1 mps 755 mmHg 84%
    04:00 -3°C° 0 mm 2 mps 755 mmHg 85%
    05:00 -3°C° 0 mm 2 mps 755 mmHg 86%
    06:00 -3°C° 0 mm 2 mps 755 mmHg 87%
    07:00 -3°C° 0 mm 2 mps 755 mmHg 88%
    08:00 -2°C° 0 mm 2 mps 755 mmHg 84%
    09:00 -2°C° 0 mm 3 mps 755 mmHg 80%
    10:00 -1°C° 0 mm 3 mps 756 mmHg 76%
    11:00 0°C° 0 mm 3 mps 755 mmHg 75%
    12:00 0°C° 0 mm 3 mps 755 mmHg 73%
    13:00 +1°C° 0 mm 3 mps 755 mmHg 71%
    14:00 0°C° 0 mm 3 mps 755 mmHg 74%
    15:00 -1°C° 0 mm 3 mps 755 mmHg 77%
    16:00 -1°C° 0 mm 3 mps 755 mmHg 80%
    17:00 -1°C° 0 mm 3 mps 755 mmHg 79%
    18:00 -1°C° 0 mm 3 mps 756 mmHg 78%
    19:00 -1°C° 0 mm 3 mps 756 mmHg 77%
    20:00 -2°C° 0 mm 3 mps 756 mmHg 77%
    21:00 -2°C° 0 mm 3 mps 756 mmHg 77%
    22:00 -2°C° 0 mm 3 mps 756 mmHg 77%
    23:00 -2°C° 0 mm 3 mps 756 mmHg 77%

    15 December, Saturday

    Time Temperature Precipitation Wind Pressure Humidity
    00:00 -2°C° 0 mm 3 mps 756 mmHg 78%
    01:00 -2°C° 0 mm 3 mps 756 mmHg 78%
    02:00 -2°C° 0 mm 3 mps 756 mmHg 78%
    03:00 -2°C° 0 mm 3 mps 756 mmHg 78%
    04:00 -2°C° 0 mm 3 mps 756 mmHg 78%
    05:00 -2°C° 0 mm 3 mps 756 mmHg 78%
    06:00 -2°C° 0 mm 3 mps 756 mmHg 77%
    07:00 -2°C° 0 mm 3 mps 756 mmHg 76%
    08:00 -2°C° 0 mm 3 mps 756 mmHg 73%
    09:00 -1°C° 0 mm 3 mps 756 mmHg 70%
    10:00 0°C° 0 mm 3 mps 756 mmHg 67%
    11:00 0°C° 0.1 mm 3 mps 756 mmHg 67%
    12:00 0°C° 0.1 mm 3 mps 755 mmHg 67%
    13:00 +1°C° 0.1 mm 3 mps 755 mmHg 67%
    14:00 0°C° 0.2 mm 3 mps 755 mmHg 70%
    15:00 0°C° 0.2 mm 3 mps 755 mmHg 73%
    16:00 -1°C° 0.2 mm 3 mps 755 mmHg 77%
    17:00 -1°C° 0.3 mm 3 mps 755 mmHg 80%
    18:00 -1°C° 0.3 mm 3 mps 755 mmHg 82%
    19:00 -2°C° 0.3 mm 4 mps 755 mmHg 85%
    20:00 -2°C° 0.4 mm 4 mps 756 mmHg 87%
    21:00 -2°C° 0.4 mm 4 mps 756 mmHg 88%
    22:00 -2°C° 0.4 mm 4 mps 756 mmHg 90%
    23:00 -2°C° 0.4 mm 4 mps 756 mmHg 91%

    16 December, Sunday

    Time Temperature Precipitation Wind Pressure Humidity
    00:00 -2°C° 0.4 mm 4 mps 756 mmHg 92%
    01:00 -3°C° 0.4 mm 4 mps 756 mmHg 93%
    02:00 -2°C° 0.2 mm 3 mps 756 mmHg 93%
    03:00 -2°C° 0.2 mm 3 mps 756 mmHg 93%
    04:00 -2°C° 0.2 mm 3 mps 756 mmHg 93%
    05:00 -2°C° 0.1 mm 3 mps 756 mmHg 94%
    06:00 -2°C° 0.1 mm 2 mps 756 mmHg 94%
    07:00 -2°C° 0.1 mm 2 mps 756 mmHg 94%
    08:00 -1°C° 0.1 mm 2 mps 756 mmHg 94%
    09:00 -1°C° 0.1 mm 2 mps 757 mmHg 94%
    10:00 -1°C° 0.1 mm 2 mps 757 mmHg 94%
    11:00 +2°C° 0 mm 1 mps 757 mmHg 94%
    12:00 +2°C° 0 mm 1 mps 757 mmHg 94%
    13:00 +2°C° 0 mm 1 mps 757 mmHg 94%
    14:00 +2°C° 0 mm 1 mps 757 mmHg 94%
    15:00 +2°C° 0 mm 1 mps 757 mmHg 94%
    16:00 +1°C° 0 mm 1 mps 757 mmHg 94%
    17:00 +1°C° 0 mm 1 mps 758 mmHg 94%
    18:00 -1°C° 0 mm 2 mps 758 mmHg 94%
    19:00 -1°C° 0 mm 2 mps 758 mmHg 94%
    20:00 -1°C° 0 mm 2 mps 758 mmHg 94%
    21:00 -1°C° 0 mm 2 mps 758 mmHg 94%
    22:00 -1°C° 0 mm 2 mps 758 mmHg 94%
    23:00 -1°C° 0 mm 2 mps 758 mmHg 94%

    17 December, Monday

    Time Temperature Precipitation Wind Pressure Humidity
    00:00 -1°C° 0 mm 2 mps 758 mmHg 94%
    01:00 -2°C° 0 mm 2 mps 758 mmHg 94%
    02:00 -2°C° 0 mm 2 mps 758 mmHg 94%
    03:00 -2°C° 0 mm 2 mps 758 mmHg 94%
    04:00 -2°C° 0 mm 2 mps 758 mmHg 95%
    05:00 0°C° 0 mm 1 mps 758 mmHg 94%
    06:00 0°C° 0 mm 1 mps 757 mmHg 94%
    07:00 0°C° 0 mm 1 mps 757 mmHg 94%
    08:00 0°C° 0 mm 1 mps 757 mmHg 94%
    09:00 +1°C° 0 mm 1 mps 757 mmHg 93%
    10:00 +1°C° 0 mm 1 mps 757 mmHg 93%
    11:00 +2°C° 0.4 mm 1 mps 757 mmHg 94%
    12:00 +2°C° 0.4 mm 1 mps 757 mmHg 95%
    13:00 +1°C° 0.4 mm 2 mps 756 mmHg 96%
    14:00 +1°C° 0.7 mm 2 mps 756 mmHg 95%
    15:00 +1°C° 0.7 mm 2 mps 756 mmHg 95%
    16:00 +1°C° 0.7 mm 2 mps 756 mmHg 94%
    17:00 +1°C° 0.3 mm 2 mps 755 mmHg 94%
    18:00 +1°C° 0.3 mm 2 mps 755 mmHg 93%
    19:00 +2°C° 0.3 mm 1 mps 755 mmHg 93%
    20:00 +2°C° 0.1 mm 1 mps 755 mmHg 93%
    21:00 +2°C° 0.1 mm 1 mps 755 mmHg 93%
    22:00 +3°C° 0.1 mm 1 mps 755 mmHg 93%
    23:00 +2°C° 0 mm 1 mps 754 mmHg 93%
    Show more